GW3252 Weather Reports


time (UTC)temp
C
wind
direction
speed
KPH
gust
KPH
rain 1hr
cm
rain 24hr
cm
rain mn
cm
humidity
%
barometer
mb
20260510153506 26 205 0.0 0.0 0.00 0.00 0.00 69 1015.3
20260510153003 25 273 0.0 3.2 0.00 0.00 0.00 71 1015.1
20260510152500 25 274 0.0 3.2 0.00 0.00 0.00 74 1015.1
20260510151953 25 275 0.0 0.0 0.00 0.00 0.00 73 1015.1
20260510151453 25 245 0.0 0.0 0.00 0.00 0.00 76 1015.0
20260510150951 24 329 0.0 0.0 0.00 0.00 0.00 78 1015.1
20260510150449 24 34 0.0 0.0 0.00 0.00 0.00 79 1015.2
20260510145947 23 251 0.0 0.0 0.00 0.00 0.00 82 1015.2
20260510145445 23 252 0.0 0.0 0.00 0.00 0.00 83 1015.1
20260510144929 22 231 0.0 0.0 0.00 0.00 0.00 88 1015.1
20260510144422 22 263 0.0 4.8 0.00 0.00 0.00 89 1014.9
20260510143913 22 263 0.0 4.8 0.00 0.00 0.00 92 1015.0
20260510143408 21 270 0.0 3.2 0.00 0.00 0.00 94 1015.0
20260510143142 21 207 0.0 3.2 0.00 0.00 0.00 95 1015.0
20260510142410 21 215 0.0 0.0 0.00 0.00 0.00 96 1015.0
20260510141856 21 214 0.0 0.0 0.00 0.00 0.00 96 1014.9
20260510141611 20 213 0.0 0.0 0.00 0.00 0.00 96 1014.8
20260510140851 20 281 0.0 0.0 0.00 0.00 0.00 96 1014.8
20260510140353 19 281 0.0 0.0 0.00 0.00 0.00 96 1014.8
20260510135843 19 297 0.0 4.8 0.00 0.00 0.00 96 1014.8
20260510135333 19 297 0.0 4.8 0.00 0.00 0.00 96 1014.7
20260510134828 19 302 0.0 1.6 0.00 0.00 0.00 96 1014.6
20260510134312 18 302 0.0 1.6 0.00 0.00 0.00 96 1014.5
20260510134034 18 303 0.0 0.0 0.00 0.00 0.00 96 1014.5
20260510133312 18 304 0.0 1.6 0.00 0.00 0.00 96 1014.5
20260510132803 18 304 0.0 4.8 0.00 0.00 0.00 96 1014.4
20260510132255 18 304 0.0 4.8 0.00 0.00 0.00 96 1014.4
20260510131747 17 341 0.0 0.0 0.00 0.00 0.00 96 1014.3
20260510131242 17 341 0.0 0.0 0.00 0.00 0.00 96 1014.3
20260510130728 17 343 0.0 0.0 0.00 0.00 0.00 96 1014.4
20260510130209 16 343 0.0 0.0 0.00 0.00 0.00 96 1014.2
20260510130144 16 343 0.0 0.0 0.00 0.00 0.00 96 1014.3
20260510125207 16 343 0.0 0.0 0.00 0.00 0.00 96 1014.3
20260510124658 15 343 0.0 0.0 0.00 0.00 0.00 96 1014.1
20260510124154 15 343 0.0 0.0 0.00 0.00 0.00 96 1014.1
20260510123652 14 343 0.0 0.0 0.00 0.00 0.00 96 1014.0
20260510123359 13 343 0.0 0.0 0.00 0.00 0.00 96 1014.0
20260510122626 13 343 0.0 0.0 0.00 0.00 0.00 95 1014.0
20260510122119 13 343 0.0 0.0 0.00 0.00 0.00 95 1014.0
20260510122052 12 343 0.0 0.0 0.00 0.00 0.00 95 1013.9
20260510121103 12 343 0.0 0.0 0.00 0.00 0.00 95 1013.8
20260510120546 12 343 0.0 0.0 0.00 0.00 0.00 95 1013.8
20260510120250 12 343 0.0 0.0 0.00 0.00 0.00 95 1013.6
20260510115739 12 343 0.0 0.0 0.00 0.00 0.00 95 1013.6
20260510115226 12 343 0.0 0.0 0.00 0.00 0.00 95 1013.6
20260510114506 12 343 0.0 0.0 0.00 0.00 0.00 95 1013.8
20260510113958 12 343 0.0 0.0 0.00 0.00 0.00 95 1013.5
20260510113454 12 343 0.0 0.0 0.00 0.00 0.00 95 1013.3
20260510112953 12 343 0.0 0.0 0.00 0.00 0.00 95 1013.2
20260510112451 12 343 0.0 0.0 0.00 0.00 0.00 95 1013.2
20260510111938 12 343 0.0 0.0 0.00 0.00 0.00 95 1013.3
20260510111431 12 343 0.0 0.0 0.00 0.00 0.00 95 1013.3
20260510110919 12 343 0.0 0.0 0.00 0.00 0.00 95 1013.2
20260510110402 12 343 0.0 0.0 0.00 0.00 0.00 95 1013.1
20260510110125 12 343 0.0 0.0 0.00 0.00 0.00 95 1013.0
20260510105351 12 343 0.0 0.0 0.00 0.00 0.00 95 1012.8
20260510105102 12 343 0.0 0.0 0.00 0.00 0.00 94 1012.7
20260510104313 11 343 0.0 0.0 0.00 0.00 0.00 94 1012.7
20260510103809 11 343 0.0 0.0 0.00 0.00 0.00 94 1012.6
20260510103258 11 343 0.0 0.0 0.00 0.00 0.00 94 1012.5
20260510102959 11 343 0.0 0.0 0.00 0.00 0.00 94 1012.5
20260510102220 12 343 0.0 0.0 0.00 0.00 0.00 94 1012.3
20260510101645 12 343 0.0 0.0 0.00 0.00 0.00 94 1012.3
20260510101107 12 343 0.0 0.0 0.00 0.00 0.00 94 1012.3
20260510100555 12 343 0.0 0.0 0.00 0.00 0.00 94 1012.3
20260510100113 12 343 0.0 0.0 0.00 0.00 0.00 94 1012.3
20260510095544 12 343 0.0 0.0 0.00 0.00 0.00 94 1012.3
20260510095257 12 343 0.0 0.0 0.00 0.00 0.00 94 1012.2
20260510094452 12 343 0.0 0.0 0.00 0.00 0.00 94 1012.1
20260510093948 12 343 0.0 0.0 0.00 0.00 0.00 94 1012.0
20260510093445 12 343 0.0 0.0 0.00 0.00 0.00 94 1012.0
20260510093208 12 343 0.0 0.0 0.00 0.00 0.00 94 1011.9
20260510092422 12 343 0.0 0.0 0.00 0.00 0.00 94 1011.7
20260510091921 12 343 0.0 0.0 0.00 0.00 0.00 94 1011.6
20260510091418 12 343 0.0 0.0 0.00 0.00 0.00 94 1011.5
20260510090908 12 343 0.0 0.0 0.00 0.00 0.00 94 1011.5
20260510090337 12 343 0.0 0.0 0.00 0.00 0.00 94 1011.6
20260510085800 12 343 0.0 0.0 0.00 0.00 0.00 94 1011.5
20260510085259 11 343 0.0 0.0 0.00 0.00 0.00 94 1011.6
20260510084757 11 343 0.0 0.0 0.00 0.00 0.00 94 1011.7
20260510084507 11 343 0.0 0.0 0.00 0.00 0.00 94 1011.6
20260510084345 11 343 0.0 0.0 0.00 0.00 0.00 94 1011.7
20260510083507 11 343 0.0 0.0 0.00 0.00 0.00 94 1011.5
20260510082723 11 343 0.0 0.0 0.00 0.00 0.00 94 1011.5
20260510082222 11 343 0.0 0.0 0.00 0.00 0.00 94 1011.5
20260510081701 11 343 0.0 0.0 0.00 0.00 0.00 94 1011.5
20260510081154 11 343 0.0 0.0 0.00 0.00 0.00 94 1011.5
20260510080629 11 343 0.0 0.0 0.00 0.00 0.00 93 1011.4
20260510075553 11 343 0.0 0.0 0.00 0.00 0.00 93 1011.4
20260510075040 11 343 0.0 0.0 0.00 0.00 0.00 93 1011.4
20260510074506 11 343 0.0 0.0 0.00 0.00 0.00 93 1011.4
20260510074006 11 343 0.0 0.0 0.00 0.00 0.00 93 1011.4
20260510073439 11 343 0.0 0.0 0.00 0.00 0.00 93 1011.3
20260510072934 11 343 0.0 0.0 0.00 0.00 0.00 93 1011.3
20260510072411 11 343 0.0 0.0 0.00 0.00 0.00 93 1011.4
20260510072127 11 343 0.0 0.0 0.00 0.00 0.00 93 1011.4
20260510071348 11 343 0.0 0.0 0.00 0.00 0.00 93 1011.4
20260510070814 11 343 0.0 0.0 0.00 0.00 0.00 93 1011.5
20260510070239 11 343 0.0 0.0 0.00 0.00 0.00 92 1011.5
20260510065734 11 343 0.0 0.0 0.00 0.00 0.00 92 1011.5
20260510065221 11 343 0.0 0.0 0.00 0.00 0.00 92 1011.4
20260510064704 11 343 0.0 0.0 0.00 0.00 0.00 92 1011.4
20260510064201 11 343 0.0 0.0 0.00 0.00 0.00 92 1011.2
20260510063622 11 343 0.0 0.0 0.00 0.00 0.00 92 1011.0
20260510063041 11 343 0.0 0.0 0.00 0.00 0.00 92 1011.0
20260510062458 11 343 0.0 0.0 0.00 0.00 0.00 92 1011.0
20260510061929 11 343 0.0 0.0 0.00 0.00 0.00 92 1010.9
20260510061411 11 343 0.0 0.0 0.00 0.00 0.00 92 1010.9
20260510060908 11 343 0.0 0.0 0.00 0.00 0.00 92 1010.9
20260510060353 11 343 0.0 0.0 0.00 0.00 0.00 92 1010.9
20260510055850 11 343 0.0 0.0 0.00 0.00 0.00 91 1010.9
20260510055347 12 343 0.0 0.0 0.00 0.00 0.00 91 1010.9
20260510054850 12 343 0.0 0.0 0.00 0.00 0.00 91 1011.0
20260510054604 12 343 0.0 0.0 0.00 0.00 0.00 91 1011.0
20260510053828 12 343 0.0 0.0 0.00 0.00 0.00 91 1011.0
20260510053321 12 343 0.0 0.0 0.00 0.00 0.00 91 1011.0
20260510052810 12 343 0.0 0.0 0.00 0.00 0.00 91 1010.9
20260510052306 12 343 0.0 0.0 0.00 0.00 0.00 91 1010.8
20260510052027 12 343 0.0 0.0 0.00 0.00 0.00 90 1010.9
20260510051522 12 343 0.0 0.0 0.00 0.00 0.00 90 1010.9
20260510050751 12 343 0.0 0.0 0.00 0.00 0.00 90 1011.0
20260510050444 12 343 0.0 0.0 0.00 0.00 0.00 90 1010.9
20260510045707 12 343 0.0 0.0 0.00 0.00 0.00 90 1010.9
20260510045202 12 343 0.0 0.0 0.00 0.00 0.00 89 1010.9
20260510044647 12 343 0.0 0.0 0.00 0.00 0.00 89 1010.9
20260510044147 12 343 0.0 0.0 0.00 0.00 0.00 89 1010.9
20260510044103 12 343 0.0 0.0 0.00 0.00 0.00 89 1010.8
20260510043055 12 343 0.0 0.0 0.00 0.00 0.00 88 1010.8
20260510042550 12 343 0.0 0.0 0.00 0.00 0.00 88 1011.0
20260510042050 13 343 0.0 0.0 0.00 0.00 0.00 88 1011.0
20260510041537 13 343 0.0 0.0 0.00 0.00 0.00 88 1010.9
20260510041034 13 343 0.0 0.0 0.00 0.00 0.00 88 1011.0
20260510040744 13 343 0.0 0.0 0.00 0.00 0.00 88 1011.0
20260510040018 13 343 0.0 0.0 0.00 0.00 0.00 88 1010.9
20260510035731 13 343 0.0 0.0 0.00 0.00 0.00 88 1010.9
20260510035006 13 343 0.0 0.0 0.00 0.00 0.00 88 1010.9
20260510034449 13 343 0.0 0.0 0.00 0.00 0.00 88 1011.0
20260510033940 13 343 0.0 0.0 0.00 0.00 0.00 87 1011.0
20260510033435 13 343 0.0 0.0 0.00 0.00 0.00 87 1011.0
20260510033213 13 343 0.0 0.0 0.00 0.00 0.00 87 1011.0
20260510032414 13 343 0.0 0.0 0.00 0.00 0.00 87 1010.9
20260510031912 14 343 0.0 0.0 0.00 0.00 0.00 87 1011.0
20260510031359 14 343 0.0 0.0 0.00 0.00 0.00 87 1011.1
20260510030856 14 343 0.0 0.0 0.00 0.00 0.00 86 1011.1
20260510030357 14 343 0.0 0.0 0.00 0.00 0.00 86 1011.0
20260510025850 14 343 0.0 0.0 0.00 0.00 0.00 86 1011.0
20260510025344 14 343 0.0 0.0 0.00 0.00 0.00 85 1010.9
20260510024831 15 343 0.0 0.0 0.00 0.00 0.00 84 1010.9
20260510024804 15 343 0.0 0.0 0.00 0.00 0.00 84 1010.9
20260510023811 15 343 0.0 0.0 0.00 0.00 0.00 84 1011.0
20260510023309 15 343 0.0 0.0 0.00 0.00 0.00 83 1010.9
20260510022809 15 343 0.0 0.0 0.00 0.00 0.00 83 1010.8
20260510022307 16 343 0.0 0.0 0.00 0.00 0.00 82 1010.7
20260510021757 16 343 0.0 0.0 0.00 0.00 0.00 82 1010.6
20260510021247 16 343 0.0 0.0 0.00 0.00 0.00 81 1010.5
20260510020747 16 343 0.0 0.0 0.00 0.00 0.00 81 1010.5
20260510020500 16 343 0.0 0.0 0.00 0.00 0.00 80 1010.5
20260510015740 17 343 0.0 0.0 0.00 0.00 0.00 79 1010.4
20260510015229 17 343 0.0 0.0 0.00 0.00 0.00 78 1010.3
20260510014712 17 343 0.0 0.0 0.00 0.00 0.00 76 1010.2
20260510014207 17 343 0.0 0.0 0.00 0.00 0.00 76 1010.0
20260510013654 18 343 0.0 0.0 0.00 0.00 0.00 74 1010.1
20260510013412 18 343 0.0 0.0 0.00 0.00 0.00 74 1010.0
20260510012856 18 343 0.0 0.0 0.00 0.00 0.00 73 1009.9
20260510012125 19 343 0.0 0.0 0.00 0.00 0.00 73 1009.8
20260510011857 20 343 0.0 0.0 0.00 0.00 0.00 71 1009.8
20260510011123 20 343 0.0 0.0 0.00 0.00 0.00 68 1009.8
20260510010623 21 343 0.0 0.0 0.00 0.00 0.00 66 1009.7
20260510010111 21 343 0.0 0.0 0.00 0.00 0.00 65 1009.7
20260510005835 22 343 0.0 0.0 0.00 0.00 0.00 64 1009.6
20260510005108 22 343 0.0 0.0 0.00 0.00 0.00 63 1009.5
20260510004557 23 343 0.0 0.0 0.00 0.00 0.00 62 1009.5
20260510004322 23 343 0.0 0.0 0.00 0.00 0.00 61 1009.4
20260510003539 24 343 0.0 0.0 0.00 0.00 0.00 59 1009.4
20260510003010 25 343 0.0 0.0 0.00 0.00 0.00 56 1009.4
20260510002448 26 343 0.0 0.0 0.00 0.00 0.00 54 1009.3
20260510001953 26 343 0.0 0.0 0.00 0.00 0.00 53 1009.3
20260510001418 26 343 0.0 0.0 0.00 0.00 0.00 53 1009.3
20260510001119 27 343 0.0 0.0 0.00 0.00 0.00 52 1009.2
20260510000356 27 343 0.0 0.0 0.00 0.00 0.00 53 1009.2
20260509235851 27 342 0.0 0.0 0.00 0.00 0.00 51 1009.2
20260509235333 27 343 0.0 0.0 0.00 0.00 0.00 52 1009.2
20260509234820 27 343 0.0 0.0 0.00 0.00 0.00 53 1009.2
20260509234548 28 343 0.0 0.0 0.00 0.00 0.00 53 1009.1
20260509233818 28 343 0.0 0.0 0.00 0.00 0.00 53 1009.1
20260509233305 28 343 0.0 0.0 0.00 0.00 0.00 48 1009.1
20260509232804 28 342 0.0 0.0 0.00 0.00 0.00 45 1009.1
20260509232306 29 343 0.0 0.0 0.00 0.00 0.00 48 1009.2
20260509231806 29 342 0.0 0.0 0.00 0.00 0.00 44 1009.2
20260509231301 29 343 0.0 0.0 0.00 0.00 0.00 44 1009.2
20260509230756 29 342 0.0 0.0 0.00 0.00 0.00 37 1009.2
20260509230256 30 342 0.0 0.0 0.00 0.00 0.00 40 1009.1
20260509225801 30 342 0.0 0.0 0.00 0.00 0.00 36 1008.9
20260509225510 30 343 0.0 0.0 0.00 0.00 0.00 37 1008.9
20260509224749 30 343 0.0 0.0 0.00 0.00 0.00 37 1008.9
20260509224240 30 343 0.0 0.0 0.00 0.00 0.00 33 1008.9
20260509223743 30 343 0.0 0.0 0.00 0.00 0.00 34 1008.9
20260509223446 30 343 0.0 0.0 0.00 0.00 0.00 33 1008.8
20260509222720 30 343 0.0 0.0 0.00 0.00 0.00 37 1008.7
20260509222157 30 284 0.0 0.0 0.00 0.00 0.00 35 1008.7
20260509221700 30 284 0.0 0.0 0.00 0.00 0.00 36 1008.9
20260509221634 30 284 0.0 0.0 0.00 0.00 0.00 32 1008.9
20260509220648 30 285 0.0 0.0 0.00 0.00 0.00 34 1009.0
20260509220407 30 285 0.0 0.0 0.00 0.00 0.00 33 1009.0
20260509215627 30 285 0.0 0.0 0.00 0.00 0.00 33 1009.1
20260509215113 29 284 0.0 0.0 0.00 0.00 0.00 32 1009.1
20260509214607 29 284 0.0 0.0 0.00 0.00 0.00 36 1009.1
20260509214109 29 284 0.0 0.0 0.00 0.00 0.00 33 1009.1
20260509213601 29 277 0.0 0.0 0.00 0.00 0.00 39 1009.1
20260509213057 29 219 0.0 0.0 0.00 0.00 0.00 34 1009.2
20260509212535 29 219 0.0 3.2 0.00 0.00 0.00 37 1009.2
20260509212257 29 219 0.0 3.2 0.00 0.00 0.00 38 1009.1
20260509211522 29 170 0.0 0.0 0.00 0.00 0.00 37 1009.1
20260509211024 29 5 0.0 0.0 0.00 0.00 0.00 36 1009.0
20260509210747 29 5 0.0 0.0 0.00 0.00 0.00 36 1009.2
20260509210007 29 170 0.0 0.0 0.00 0.00 0.00 36 1009.3
20260509205500 29 159 0.0 0.0 0.00 0.00 0.00 37 1009.2
20260509204959 29 172 0.0 4.8 0.00 0.00 0.00 37 1009.2
20260509204455 29 173 0.0 4.8 0.00 0.00 0.00 40 1009.3
20260509203941 28 225 0.0 0.0 0.00 0.00 0.00 36 1009.2
20260509203442 28 223 0.0 0.0 0.00 0.00 0.00 38 1009.2
20260509202946 28 217 0.0 0.0 0.00 0.00 0.00 35 1009.3
20260509202413 28 142 0.0 0.0 0.00 0.00 0.00 36 1009.2
20260509201904 28 66 0.0 0.0 0.00 0.00 0.00 36 1009.2
20260509201400 28 62 0.0 0.0 0.00 0.00 0.00 39 1009.3
20260509200858 28 245 0.0 0.0 0.00 0.00 0.00 41 1009.3
20260509200355 28 128 0.0 1.6 0.00 0.00 0.00 39 1009.3
20260509195855 28 121 0.0 4.8 0.00 0.00 0.00 40 1009.4
20260509195326 28 86 0.0 4.8 0.00 0.00 0.00 39 1009.3
20260509194827 28 169 1.6 6.4 0.00 0.00 0.00 39 1009.4
20260509194533 28 177 0.0 4.8 0.00 0.00 0.00 42 1009.5
20260509193813 27 340 0.0 0.0 0.00 0.00 0.00 43 1009.4
20260509193253 27 290 0.0 0.0 0.00 0.00 0.00 39 1009.4
20260509192751 27 112 0.0 3.2 0.00 0.00 0.00 38 1009.5
20260509192253 27 113 1.6 6.4 0.00 0.00 0.00 43 1009.5
20260509191748 27 124 1.6 8.0 0.00 0.00 0.00 39 1009.5
20260509191253 27 131 1.6 8.0 0.00 0.00 0.00 42 1009.6
20260509190749 27 38 0.0 0.0 0.00 0.00 0.00 45 1009.6
20260509190249 27 202 0.0 4.8 0.00 0.00 0.00 46 1009.7
20260509185745 27 215 0.0 4.8 0.00 0.00 0.00 44 1009.6
20260509185242 26 270 0.0 9.7 0.00 0.00 0.00 46 1009.6
20260509184742 26 288 0.0 9.7 0.00 0.00 0.00 48 1009.6
20260509184240 26 267 0.0 0.0 0.00 0.00 0.00 44 1009.5
20260509183733 26 271 0.0 0.0 0.00 0.00 0.00 43 1009.7
20260509183227 26 271 0.0 3.2 0.00 0.00 0.00 42 1009.7
20260509183206 26 169 1.6 6.4 0.00 0.00 0.00 41 1009.8
20260509182212 26 253 3.2 8.0 0.00 0.00 0.00 41 1009.7
20260509181706 26 261 3.2 11.3 0.00 0.00 0.00 49 1009.8
20260509181207 26 267 3.2 11.3 0.00 0.00 0.00 46 1009.8
20260509180705 26 257 1.6 6.4 0.00 0.00 0.00 49 1009.9
20260509180203 26 268 1.6 4.8 0.00 0.00 0.00 47 1010.0
20260509175654 26 196 3.2 8.0 0.00 0.00 0.00 48 1010.0
20260509175209 26 248 1.6 8.0 0.00 0.00 0.00 44 1010.0
20260509174654 26 57 1.6 6.4 0.00 0.00 0.00 46 1010.0
20260509174149 26 290 3.2 11.3 0.00 0.00 0.00 53 1010.0
20260509173644 26 215 4.8 11.3 0.00 0.00 0.00 48 1010.0
20260509173135 26 195 1.6 11.3 0.00 0.00 0.00 49 1010.0
20260509172630 26 255 1.6 6.4 0.00 0.00 0.00 48 1010.1
20260509172132 26 46 1.6 11.3 0.00 0.00 0.00 52 1010.1
20260509171617 26 263 1.6 14.5 0.00 0.00 0.00 49 1010.1
20260509171116 26 24 1.6 14.5 0.00 0.00 0.00 54 1010.0
20260509170612 25 294 1.6 6.4 0.00 0.00 0.00 61 1009.9
20260509170118 25 340 1.6 6.4 0.00 0.00 0.00 54 1010.0
20260509165609 25 40 1.6 4.8 0.00 0.00 0.00 53 1010.0
20260509165104 25 273 1.6 4.8 0.00 0.00 0.00 55 1010.1
20260509164603 25 309 1.6 8.0 0.00 0.00 0.00 54 1010.1
20260509164053 25 43 1.6 8.0 0.00 0.00 0.00 53 1010.1
20260509163544 25 234 1.6 9.7 0.00 0.00 0.00 56 1010.1
20260509163314 25 306 1.6 9.7 0.00 0.00 0.00 58 1010.0
20260509162542 24 52 0.0 6.4 0.00 0.00 0.00 58 1010.1
20260509162043 24 298 3.2 9.7 0.00 0.00 0.00 58 1010.0
20260509161540 24 248 4.8 11.3 0.00 0.00 0.00 57 1010.0
20260509161527 24 262 3.2 11.3 0.00 0.00 0.00 58 1010.0
20260509160537 24 302 1.6 8.0 0.00 0.00 0.00 60 1009.9
20260509160039 24 233 3.2 8.0 0.00 0.00 0.00 60 1009.8
20260509155541 24 215 3.2 9.7 0.00 0.00 0.00 58 1009.8
20260509155025 24 296 3.2 9.7 0.00 0.00 0.00 61 1009.7
20260509154523 23 252 1.6 4.8 0.00 0.00 0.00 62 1009.6
20260509154022 23 284 0.0 4.8 0.00 0.00 0.00 62 1009.6